Salt Lake City, UT

12:29 PM MDT on October 01, 2016 (GMT -0600)
Salt Lake City International

Weather History for KSLC - October, 2012

Change the Weather History Date:

Saturday, October 20, 2012

  Actual Average Record
Temperature  
Mean Temperature 66 °F 51 °F  
Max Temperature 78 °F 63 °F 83 °F (1921)
Min Temperature 53 °F 40 °F 24 °F (1932)
Degree Days  
Heating Degree Days 0 14  
Month to date heating degree days 147 204  
Since 1 July heating degree days 154 293  
Cooling Degree Days 1 0  
Month to date cooling degree days 8 5  
Year to date cooling degree days 1616 1158  
Growing Degree Days 15 (Base 50)    
Moisture  
Dew Point 34 °F    
Average Humidity 31    
Maximum Humidity 46    
Minimum Humidity 16    
Precipitation  
Precipitation 0.00 in 0.05 in 1.14 in (2004)
Month to date precipitation 0.56 0.96  
Year to date precipitation 8.65 12.68  
Snow  
Snow 0.00 in 0.10 in 2.50 in (1996)
Month to date snowfall 0.0 0.6  
Since 1 July snowfall 0.0 0.6  
Snow Depth 0.00 in    
Sea Level Pressure  
Sea Level Pressure 29.65 in    
Wind  
Wind Speed 8 mph (NE)    
Max Wind Speed 13 mph    
Max Gust Speed -    
Visibility 10 miles    
Events      
T = Trace of Precipitation, MM = Missing Value Source: NWS Daily Summary

Daily Weather History Graph

Daily Weather History Graph

Search for Another Location

Airport or City:

Trip Planner

Search our weather history database for the weather conditions in past years. The results will help you decide how hot, cold, wet, or windy it might be!

Date:

Astronomy

Oct. 20, 2012 Rise Set
Actual Time 7:45 AM MDT 6:39 PM MDT
Civil Twilight 7:17 AM MDT 7:07 PM MDT
Nautical Twilight 6:45 AM MDT 7:38 PM MDT
Astronomical Twilight 6:13 AM MDT 8:10 PM MDT
Moon 1:25 PM MDT (10/20) 11:28 PM MDT (10/20)
Length of Visible Light 11h 49m
Length of Day
10h 54m
Waxing Crescent, 35% of the Moon is Illuminated
Oct 20
Waxing Crescent
Oct 21
First Quarter
Oct 29
Full
Nov 6
Last Quarter
Nov 13
New

Hourly Weather History & Observations

Time (MDT) Temp. Dew Point Humidity Pressure Visibility Wind Dir Wind Speed Gust Speed Precip Events Conditions
12:53 AM 59.0 °F 32.0 °F 36% 29.78 in 10.0 mi SE 11.5 mph - N/A   Mostly Cloudy
1:53 AM 59.0 °F 32.0 °F 36% 29.75 in 10.0 mi SE 9.2 mph - N/A   Mostly Cloudy
2:53 AM 55.0 °F 32.0 °F 42% 29.75 in 10.0 mi SE 5.8 mph - N/A   Scattered Clouds
3:53 AM 53.1 °F 33.1 °F 47% 29.74 in 10.0 mi ESE 9.2 mph - N/A   Scattered Clouds
4:53 AM 55.9 °F 30.9 °F 39% 29.73 in 10.0 mi ESE 9.2 mph - N/A   Mostly Cloudy
5:53 AM 55.9 °F 32.0 °F 40% 29.74 in 10.0 mi WSW 3.5 mph - N/A   Mostly Cloudy
6:53 AM 57.9 °F 30.9 °F 36% 29.74 in 10.0 mi East 6.9 mph - N/A   Mostly Cloudy
7:53 AM 57.0 °F 30.9 °F 37% 29.73 in 10.0 mi SE 8.1 mph - N/A   Mostly Cloudy
8:53 AM 59.0 °F 32.0 °F 36% 29.72 in 10.0 mi ESE 9.2 mph - N/A   Mostly Cloudy
9:53 AM 62.1 °F 32.0 °F 32% 29.73 in 10.0 mi East 5.8 mph - N/A   Mostly Cloudy
10:53 AM 68.0 °F 30.9 °F 25% 29.70 in 10.0 mi Variable 3.5 mph - N/A   Mostly Cloudy
11:53 AM 66.9 °F 32.0 °F 27% 29.68 in 10.0 mi WNW 6.9 mph - N/A   Mostly Cloudy
12:53 PM 70.0 °F 30.0 °F 23% 29.65 in 10.0 mi WSW 6.9 mph - N/A   Mostly Cloudy
1:53 PM 73.0 °F 30.9 °F 21% 29.61 in 10.0 mi SSW 8.1 mph - N/A   Mostly Cloudy
2:53 PM 75.9 °F 30.0 °F 19% 29.58 in 10.0 mi NW 9.2 mph - N/A   Mostly Cloudy
3:53 PM 77.0 °F 30.0 °F 18% 29.56 in 10.0 mi NNW 9.2 mph - N/A   Scattered Clouds
4:53 PM 75.9 °F 28.9 °F 18% 29.54 in 10.0 mi North 9.2 mph - N/A   Mostly Cloudy
5:53 PM 70.0 °F 30.9 °F 24% 29.54 in 10.0 mi NNW 10.4 mph - N/A   Mostly Cloudy
6:53 PM 66.9 °F 36.0 °F 32% 29.55 in 10.0 mi NNW 9.2 mph - N/A   Mostly Cloudy
7:53 PM 63.0 °F 44.1 °F 50% 29.56 in 10.0 mi NW 10.4 mph - N/A   Mostly Cloudy
8:53 PM 57.9 °F 41.0 °F 53% 29.56 in 10.0 mi West 6.9 mph - N/A   Mostly Cloudy
9:53 PM 60.1 °F 41.0 °F 49% 29.59 in 10.0 mi ESE 4.6 mph - N/A   Mostly Cloudy
10:53 PM 57.9 °F 39.9 °F 51% 29.61 in 10.0 mi NNW 3.5 mph - N/A   Mostly Cloudy
11:53 PM 52.0 °F 43.0 °F 71% 29.62 in 10.0 mi West 4.6 mph - N/A   Scattered Clouds